Bangor, ME

2:33 PM EST on December 05, 2016 (GMT -0500)
Bangor International

Weather History for KBGR - November, 2013

Change the Weather History Date:

Monday, November 25, 2013

  Actual Average Record
Temperature  
Mean Temperature 21 °F 34 °F  
Max Temperature 28 °F 42 °F 63 °F (1953)
Min Temperature 14 °F 25 °F 4 °F (1939)
Degree Days  
Heating Degree Days 44 32  
Month to date heating degree days 706 678  
Since 1 July heating degree days 1400 1504  
Cooling Degree Days 0 0  
Month to date cooling degree days 0 0  
Year to date cooling degree days 355 318  
Moisture  
Dew Point 0 °F    
Average Humidity 39    
Maximum Humidity 53    
Minimum Humidity 24    
Precipitation  
Precipitation 0.00 in 0.14 in 5.10 in (1983)
Month to date precipitation 1.31 3.49  
Year to date precipitation 34.68 37.74  
Snow  
Snow 0.00 in 0.10 in 4.70 in (1971)
Month to date snowfall T 1.4  
Since 1 July snowfall T 1.5  
Since 1 September snowfall T 1.5  
Snow Depth 0.00 in    
Sea Level Pressure  
Sea Level Pressure 30.17 in    
Wind  
Wind Speed 9 mph (West)    
Max Wind Speed 20 mph    
Max Gust Speed 28 mph    
Visibility 10 miles    
Events      
T = Trace of Precipitation, MM = Missing Value Source: NWS Daily Summary

Daily Weather History Graph

Daily Weather History Graph

Search for Another Location

Airport or City:

Trip Planner

Search our weather history database for the weather conditions in past years. The results will help you decide how hot, cold, wet, or windy it might be!

Date:

Astronomy

Nov. 25, 2013 Rise Set
Actual Time 6:45 AM EST 3:58 PM EST
Civil Twilight 6:13 AM EST 4:31 PM EST
Nautical Twilight 5:36 AM EST 5:07 PM EST
Astronomical Twilight 5:01 AM EST 5:42 PM EST
Moon 11:30 PM EST (11/25) 11:51 AM EST (11/25)
Length of Visible Light 10h 18m
Length of Day
9h 13m
Waning Gibbous, 51% of the Moon is Illuminated
Nov 25
Waning Gibbous
Nov 25
Last Quarter
Dec 2
New
Dec 9
First Quarter
Dec 17
Full

Hourly Weather History & Observations

Time (EST) Temp. Windchill Dew Point Humidity Pressure Visibility Wind Dir Wind Speed Gust Speed Precip Events Conditions
12:53 AM 18.0 °F 8.7 °F 1.9 °F 50% 29.93 in 10.0 mi WNW 6.9 mph - N/A   Partly Cloudy
1:53 AM 17.1 °F 7.6 °F 1.0 °F 50% 29.96 in 10.0 mi WNW 6.9 mph 19.6 mph N/A   Clear
2:53 AM 16.0 °F 1.7 °F 1.0 °F 52% 29.99 in 10.0 mi West 13.8 mph 23.0 mph N/A   Clear
3:53 AM 16.0 °F 2.9 °F -0.0 °F 49% 30.02 in 10.0 mi West 11.5 mph 19.6 mph N/A   Clear
4:53 AM 15.1 °F 2.5 °F -0.9 °F 49% 30.06 in 10.0 mi WNW 10.4 mph 17.3 mph N/A   Clear
5:53 AM 15.1 °F 3.3 °F -2.0 °F 47% 30.09 in 10.0 mi WNW 9.2 mph 17.3 mph N/A   Partly Cloudy
6:53 AM 14.0 °F 0.5 °F -2.0 °F 49% 30.13 in 10.0 mi WNW 11.5 mph 21.9 mph N/A   Mostly Cloudy
7:53 AM 15.1 °F -1.6 °F -2.9 °F 45% 30.17 in 10.0 mi NW 18.4 mph 25.3 mph N/A   Scattered Clouds
8:53 AM 17.1 °F 5.0 °F -2.0 °F 43% 30.18 in 10.0 mi WNW 10.4 mph 19.6 mph N/A   Partly Cloudy
9:53 AM 19.9 °F 8.6 °F -2.0 °F 38% 30.18 in 10.0 mi West 10.4 mph 21.9 mph N/A   Partly Cloudy
10:53 AM 21.9 °F 10.4 °F -2.0 °F 35% 30.19 in 10.0 mi West 11.5 mph 19.6 mph N/A   Clear
11:53 AM 25.0 °F 14.2 °F -2.9 °F 30% 30.18 in 10.0 mi NW 11.5 mph 21.9 mph N/A   Clear
12:53 PM 27.0 °F 16.1 °F -2.9 °F 27% 30.19 in 10.0 mi NW 12.7 mph 17.3 mph N/A   Partly Cloudy
1:53 PM 28.0 °F 16.5 °F -4.0 °F 25% 30.20 in 10.0 mi NW 15.0 mph 24.2 mph N/A   Partly Cloudy
2:53 PM 28.0 °F 18.1 °F -2.0 °F 27% 30.22 in 10.0 mi WNW 11.5 mph - N/A   Partly Cloudy
3:53 PM 25.0 °F 19.3 °F -0.0 °F 34% 30.25 in 10.0 mi WNW 4.6 mph - N/A   Partly Cloudy
4:53 PM 23.0 °F 17.0 °F -0.0 °F 37% 30.26 in 10.0 mi WNW 4.6 mph - N/A   Partly Cloudy
5:53 PM 21.9 °F - -0.9 °F 37% 30.27 in 10.0 mi Calm Calm - N/A   Clear
6:53 PM 21.0 °F 14.6 °F -0.0 °F 40% 30.27 in 10.0 mi South 4.6 mph - N/A   Scattered Clouds
7:53 PM 21.0 °F 12.4 °F 1.9 °F 44% 30.30 in 10.0 mi SSW 6.9 mph - N/A   Mostly Cloudy
8:53 PM 21.9 °F 13.4 °F 1.0 °F 40% 30.28 in 10.0 mi South 6.9 mph - N/A   Scattered Clouds
9:53 PM 23.0 °F 18.4 °F 1.9 °F 40% 30.27 in 10.0 mi SSW 3.5 mph - N/A   Mostly Cloudy
10:53 PM 25.0 °F 19.3 °F 3.0 °F 39% 30.27 in 10.0 mi South 4.6 mph - N/A   Overcast
11:53 PM 25.0 °F 20.7 °F 3.0 °F 39% 30.26 in 10.0 mi SSW 3.5 mph - N/A   Overcast